Location: Chuathbaluk
(61.5726°N, 159.2454°W)
Time: 05:45:04
(UTC+00:00)

Vanguard 1 Rocket - Visible Passes

Search period start: 27 November 2020 00:00
Search period end: 07 December 2020 00:00
Orbit: 656 x 4221 km, 34.3° (Epoch: 26 November)

Date Brightness Start Highest point End Pass type
(mag) Time Alt. Az. Time Alt. Az. Time Alt. Az.
27 Nov 11.1 12:20:44 22° SSE 12:20:44 22° SSE 12:31:41 10° ESE visible
27 Nov 10.8 14:38:01 20° SSW 14:45:12 25° S 14:56:03 10° SE visible
27 Nov 10.9 17:00:07 10° WSW 17:09:23 16° SW 17:16:21 10° S visible
28 Nov 11.3 11:13:28 17° SE 11:13:28 17° SE 11:19:24 10° ESE visible
28 Nov 10.9 13:30:45 25° S 13:33:22 26° S 13:45:43 10° SE visible
28 Nov 10.8 15:48:02 14° WSW 15:58:29 22° SSW 16:08:00 10° SSE visible
29 Nov 11.0 12:23:29 25° SSE 12:23:29 25° SSE 12:34:40 10° ESE visible
29 Nov 10.8 14:40:45 22° SW 14:47:02 26° SSW 14:58:33 10° SE visible
29 Nov 11.0 17:02:07 10° WSW 17:11:06 15° SW 17:18:02 10° S visible
30 Nov 11.3 11:16:10 19° SE 11:16:10 19° SE 11:22:43 10° ESE visible
30 Nov 10.9 13:33:26 27° S 13:35:08 28° S 13:48:20 10° SE visible
30 Nov 10.9 15:50:43 15° WSW 16:00:14 22° SSW 16:10:06 10° SSE visible
01 Dec 11.6 10:08:51 11° ESE 10:08:51 11° ESE 10:09:26 10° ESE visible
01 Dec 11.0 12:26:08 26° SSE 12:26:08 26° SSE 12:37:24 10° ESE visible
01 Dec 10.9 14:43:24 24° SW 14:48:47 26° SSW 15:00:52 10° SSE visible
01 Dec 11.1 17:04:27 10° WSW 17:12:41 14° SW 17:19:17 10° SSW visible
02 Dec 11.2 11:18:48 20° SE 11:18:48 20° SE 11:25:38 10° ESE visible
02 Dec 10.9 13:36:04 29° S 13:36:50 29° S 13:50:46 10° SE visible
02 Dec 11.0 15:53:20 16° WSW 16:01:51 21° SSW 16:11:58 10° S visible
03 Dec 11.5 10:11:28 12° ESE 10:11:28 12° ESE 10:12:47 10° ESE visible
03 Dec 11.0 12:28:44 28° SSE 12:28:44 28° SSE 12:39:54 10° ESE visible
03 Dec 10.9 14:46:01 24° SW 14:50:26 26° SSW 15:02:59 10° SSE visible
03 Dec 11.2 17:07:21 10° WSW 17:14:06 13° SW 17:19:50 10° SSW visible
04 Dec 11.2 11:21:24 21° SE 11:21:24 21° SE 11:28:16 10° ESE visible
04 Dec 10.9 13:38:40 29° S 13:38:40 29° S 13:53:01 10° SE visible
04 Dec 11.0 15:55:57 16° WSW 16:03:21 19° SW 16:13:31 10° S visible
05 Dec 11.5 10:14:04 12° ESE 10:14:04 12° ESE 10:15:40 10° ESE visible
05 Dec 11.0 12:31:21 28° SSE 12:31:21 28° SSE 12:42:15 10° SE visible
05 Dec 11.0 14:48:37 24° SW 14:51:57 25° SSW 15:04:52 10° SSE visible
05 Dec 11.3 17:11:35 10° WSW 17:15:23 11° SW 17:18:53 10° SW visible
06 Dec 11.2 11:24:02 21° SE 11:24:02 21° SE 11:30:41 10° ESE visible
06 Dec 10.9 13:41:18 29° S 13:41:18 29° S 13:55:04 10° SE visible
06 Dec 11.1 15:58:35 15° WSW 16:04:42 18° SW 16:14:38 10° S visible
